This is the latest recevied weather packets stored in our database for station/object KD7CTY. If no packets are shown the sender has not sent any weather packets the latest 1 day(s).
| Time | Temp. | Humidity | Pressure | Rain* | Wind** | Luminosity | Snow |
|---|---|---|---|---|---|---|---|
| 1778043286 | 13.33° C | 88% | 1014.8 hPa | 0 mm | - | 0 W/m² | - |
| 1778042983 | 13.33° C | 88% | 1014.7 hPa | 0 mm | - | 0 W/m² | - |
| 1778042681 | 13.33° C | 88% | 1014.8 hPa | 0 mm | - | 0 W/m² | - |
| 1778042075 | 13.89° C | 88% | 1014.7 hPa | 0 mm | - | 0 W/m² | - |
| 1778041472 | 13.89° C | 87% | 1014.7 hPa | 0 mm | - | 0 W/m² | - |
| 1778040867 | 13.89° C | 88% | 1014.8 hPa | 0 mm | - | 0 W/m² | - |
| 1778040564 | 14.44° C | 87% | 1014.5 hPa | 0 mm | - | 0 W/m² | - |
| 1778039957 | 14.44° C | 87% | 1014.6 hPa | 0 mm | - | 0 W/m² | - |
| 1778039049 | 15° C | 86% | 1014.2 hPa | 0 mm | - | 0 W/m² | - |
| 1778038746 | 15° C | 86% | 1014.3 hPa | 0 mm | - | 0 W/m² | - |
| 1778037836 | 15.56° C | 84% | 1014.3 hPa | 0 mm | - | 5 W/m² | - |
| 1778037533 | 15.56° C | 83% | 1014 hPa | 0 mm | - | 6 W/m² | - |
| 1778036928 | 16.11° C | 82% | 1013.9 hPa | 0 mm | - | 12 W/m² | - |
| 1778036626 | 16.11° C | 82% | 1014.2 hPa | 0 mm | - | 15 W/m² | - |
| 1778036323 | 16.11° C | 81% | 1014 hPa | 0 mm | - | 18 W/m² | - |
| 1778036019 | 16.67° C | 80% | 1014.1 hPa | 0 mm | - | 20 W/m² | - |
| 1778035716 | 16.67° C | 80% | 1014 hPa | 0 mm | - | 24 W/m² | - |
| 1778035413 | 17.22° C | 78% | 1014 hPa | 0 mm | - | 27 W/m² | - |
| 1778034806 | 17.78° C | 77% | 1013.9 hPa | 0 mm | - | 35 W/m² | - |
| 1778034503 | 18.33° C | 76% | 1013.9 hPa | 0 mm | - | 35 W/m² | - |
| 1778033899 | 18.33° C | 76% | 1014 hPa | 0 mm | - | 41 W/m² | - |
| 1778033595 | 18.33° C | 74% | 1013.8 hPa | 0 mm | - | 78 W/m² | - |
| 1778033292 | 18.33° C | 75% | 1014 hPa | 0 mm | - | 45 W/m² | - |
| 1778032990 | 18.89° C | 74% | 1013.8 hPa | 0 mm | - | 103 W/m² | - |
| 1778031778 | 20° C | 72% | 1013.8 hPa | 0 mm | - | 55 W/m² | - |
* Rain latest hour (hover to see other rain measurements)
** Current wind speed in m/s (hover to see current wind gust speed)